Location: Luxembourg
(49.6117°N, 6.1300°E)
Time: 15:42:05
(UTC+01:00)

AO-27 - Visible Passes

Search period start: 03 March 2024 00:00
Search period end: 13 March 2024 00:00
Orbit: 784 x 797 km, 98.8° (Epoch: 02 March)

Date Brightness Start Highest point End Pass type
(mag) Time Alt. Az. Time Alt. Az. Time Alt. Az.
03 Mar 8.2 19:52:54 24° ESE 19:55:17 36° ENE 20:00:00 10° N visible
03 Mar 8.9 21:33:37 33° SW 21:34:44 37° W 21:39:33 10° NNW visible
04 Mar 8.9 19:22:56 13° ESE 19:26:06 23° ENE 19:30:03 10° N visible
04 Mar 7.9 21:03:39 45° SSW 21:05:07 66° WSW 21:10:18 10° NNW visible
05 Mar 9.4 18:54:23 10° E 18:57:03 14° NE 18:59:42 10° NNE visible
05 Mar 7.5 20:33:41 39° SSE 20:35:38 74° ENE 20:40:50 10° NNW visible
05 Mar 9.9 22:14:25 17° WSW 22:15:40 18° W 22:19:10 10° NW visible
06 Mar 8.0 20:03:44 25° ESE 20:06:17 43° ENE 20:11:11 10° N visible
06 Mar 9.2 21:44:27 27° SW 21:45:53 31° W 21:50:28 10° NNW visible
07 Mar 8.7 19:33:46 15° ESE 19:37:03 27° ENE 19:41:20 10° N visible
07 Mar 8.2 21:14:30 37° SSW 21:16:14 53° W 21:21:20 10° NNW visible
08 Mar 9.2 19:04:43 10° E 19:07:57 17° NE 19:11:10 10° NNE visible
08 Mar 7.5 20:44:32 36° SSE 20:46:42 89° ENE 20:51:56 10° NNW visible
08 Mar 10.1 22:25:16 13° WSW 22:26:54 15° W 22:29:43 10° NW visible
09 Mar 7.8 20:14:35 26° SE 20:17:17 52° ENE 20:22:21 10° N visible
09 Mar 9.5 21:55:18 21° WSW 21:57:03 25° W 22:01:20 10° NW visible
10 Mar 8.4 19:44:38 16° ESE 19:48:01 32° ENE 19:52:34 10° N visible
10 Mar 8.6 21:25:21 30° SSW 21:27:21 44° W 21:32:19 10° NNW visible
11 Mar 9.0 19:15:12 10° ESE 19:18:51 20° ENE 19:22:33 10° N visible
11 Mar 7.7 20:55:24 33° S 20:57:46 76° WSW 21:02:59 10° NNW visible
11 Mar 10.3 22:36:20 10° WSW 22:38:08 12° W 22:39:56 10° WNW visible
12 Mar 7.6 20:25:27 26° SE 20:28:19 64° ENE 20:33:29 10° N visible
12 Mar 9.8 22:06:10 17° WSW 22:08:14 21° W 22:12:07 10° NW visible
